Year,Month,Day,Hour,Minute,Value (Times are PST for temperature in C)
2018,08,21,00,00,23.80
2018,08,21,00,01,23.80
2018,08,21,00,02,23.70
2018,08,21,00,03,23.70
2018,08,21,00,04,23.70
2018,08,21,00,05,23.60
2018,08,21,00,06,23.50
2018,08,21,00,07,23.40
2018,08,21,00,08,23.30
2018,08,21,00,09,23.20
2018,08,21,00,10,23.10
2018,08,21,00,11,23.10
2018,08,21,00,12,22.90
2018,08,21,00,13,22.90
2018,08,21,00,14,22.80
2018,08,21,00,15,22.70
2018,08,21,00,16,22.70
2018,08,21,00,17,22.70
2018,08,21,00,18,22.70
2018,08,21,00,19,22.70
2018,08,21,00,20,22.70
2018,08,21,00,21,22.70
2018,08,21,00,22,22.70
2018,08,21,00,23,22.70
2018,08,21,00,24,22.70
2018,08,21,00,25,22.70
2018,08,21,00,26,22.70
2018,08,21,00,27,22.70
2018,08,21,00,28,22.70
2018,08,21,00,29,22.80
2018,08,21,00,30,22.80
2018,08,21,00,31,22.80
2018,08,21,00,32,22.80
2018,08,21,00,33,22.80
2018,08,21,00,34,22.90
2018,08,21,00,35,22.90
2018,08,21,00,36,22.90
2018,08,21,00,37,22.90
2018,08,21,00,38,23.00
2018,08,21,00,39,23.00
2018,08,21,00,40,23.10
2018,08,21,00,41,23.10
2018,08,21,00,42,23.10
2018,08,21,00,43,23.10
2018,08,21,00,44,23.20
2018,08,21,00,45,23.20
2018,08,21,00,46,23.20
2018,08,21,00,47,23.20
2018,08,21,00,48,23.10
2018,08,21,00,49,23.00
2018,08,21,00,50,22.90
2018,08,21,00,51,22.80
2018,08,21,00,52,22.70
2018,08,21,00,53,22.60
2018,08,21,00,54,22.50
2018,08,21,00,55,22.40
2018,08,21,00,56,22.40
2018,08,21,00,57,22.40
2018,08,21,00,58,22.50
2018,08,21,00,59,22.60
2018,08,21,01,00,22.70
2018,08,21,01,01,22.80
2018,08,21,01,02,22.90
2018,08,21,01,03,23.10
2018,08,21,01,04,23.20
2018,08,21,01,05,23.30
2018,08,21,01,06,23.40
2018,08,21,01,07,23.50
2018,08,21,01,08,23.60
2018,08,21,01,09,23.60
2018,08,21,01,10,23.50
2018,08,21,01,11,23.40
2018,08,21,01,12,23.20
2018,08,21,01,13,23.00
2018,08,21,01,14,22.80
2018,08,21,01,15,22.70
2018,08,21,01,16,22.60
2018,08,21,01,17,22.40
2018,08,21,01,18,22.30
2018,08,21,01,19,22.20
2018,08,21,01,20,22.10
2018,08,21,01,21,22.00
2018,08,21,01,22,21.80
2018,08,21,01,23,21.70
2018,08,21,01,24,21.60
2018,08,21,01,25,21.50
2018,08,21,01,26,21.40
2018,08,21,01,27,21.30
2018,08,21,01,28,21.30
2018,08,21,01,29,21.20
2018,08,21,01,30,21.20
2018,08,21,01,31,21.10
2018,08,21,01,32,21.10
2018,08,21,01,33,21.00
2018,08,21,01,34,21.00
2018,08,21,01,35,20.90
2018,08,21,01,36,20.90
2018,08,21,01,37,20.90
2018,08,21,01,38,20.90
2018,08,21,01,39,20.80
2018,08,21,01,40,20.80
2018,08,21,01,41,20.80
2018,08,21,01,42,20.80
2018,08,21,01,43,20.80
2018,08,21,01,44,20.80
2018,08,21,01,45,20.70
2018,08,21,01,46,20.70
2018,08,21,01,47,20.70
2018,08,21,01,48,20.70
2018,08,21,01,49,20.70
2018,08,21,01,50,20.70
2018,08,21,01,51,20.70
2018,08,21,01,52,20.70
2018,08,21,01,53,20.60
2018,08,21,01,54,20.60
2018,08,21,01,55,20.60
2018,08,21,01,56,20.60
2018,08,21,01,57,20.60
2018,08,21,01,58,20.60
2018,08,21,01,59,20.60
2018,08,21,02,00,20.60
2018,08,21,02,01,20.60
2018,08,21,02,02,20.50
2018,08,21,02,03,20.50
2018,08,21,02,04,20.50
2018,08,21,02,05,20.40
2018,08,21,02,06,20.40
2018,08,21,02,07,20.40
2018,08,21,02,08,20.30
2018,08,21,02,09,20.30
2018,08,21,02,10,20.30
2018,08,21,02,11,20.30
2018,08,21,02,12,20.30
2018,08,21,02,13,20.20
2018,08,21,02,14,20.20
2018,08,21,02,15,20.20
2018,08,21,02,16,20.20
2018,08,21,02,17,20.20
2018,08,21,02,18,20.20
2018,08,21,02,19,20.20
2018,08,21,02,20,20.20
2018,08,21,02,21,20.10
2018,08,21,02,22,20.10
2018,08,21,02,23,20.10
2018,08,21,02,24,20.00
2018,08,21,02,25,20.00
2018,08,21,02,26,19.90
2018,08,21,02,27,19.90
2018,08,21,02,28,19.80
2018,08,21,02,29,19.80
2018,08,21,02,30,19.80
2018,08,21,02,31,19.80
2018,08,21,02,32,19.70
2018,08,21,02,33,19.70
2018,08,21,02,34,19.70
2018,08,21,02,35,19.70
2018,08,21,02,36,19.60
2018,08,21,02,37,19.60
2018,08,21,02,38,19.60
2018,08,21,02,39,19.60
2018,08,21,02,40,19.60
2018,08,21,02,41,19.50
2018,08,21,02,42,19.50
2018,08,21,02,43,19.40
2018,08,21,02,44,19.40
2018,08,21,02,45,19.40
2018,08,21,02,46,19.40
2018,08,21,02,47,19.40
2018,08,21,02,48,19.40
2018,08,21,02,49,19.40
2018,08,21,02,50,19.40
2018,08,21,02,51,19.30
2018,08,21,02,52,19.30
2018,08,21,02,53,19.30
2018,08,21,02,54,19.30
2018,08,21,02,55,19.30
2018,08,21,02,56,19.30
2018,08,21,02,57,19.30
2018,08,21,02,58,19.30
2018,08,21,02,59,19.30
2018,08,21,03,00,19.30
2018,08,21,03,01,19.20
2018,08,21,03,02,19.20
2018,08,21,03,03,19.20
2018,08,21,03,04,19.20
2018,08,21,03,05,19.20
2018,08,21,03,06,19.20
2018,08,21,03,07,19.20
2018,08,21,03,08,19.20
2018,08,21,03,09,19.20
2018,08,21,03,10,19.20
2018,08,21,03,11,19.20
2018,08,21,03,12,19.20
2018,08,21,03,13,19.20
2018,08,21,03,14,19.20
2018,08,21,03,15,19.20
2018,08,21,03,16,19.30
2018,08,21,03,17,19.30
2018,08,21,03,18,19.30
2018,08,21,03,19,19.30
2018,08,21,03,20,19.30
2018,08,21,03,21,19.30
2018,08,21,03,22,19.30
2018,08,21,03,23,19.30
2018,08,21,03,24,19.30
2018,08,21,03,25,19.30
2018,08,21,03,26,19.30
2018,08,21,03,27,19.30
2018,08,21,03,28,19.30
2018,08,21,03,29,19.30
2018,08,21,03,30,19.30
2018,08,21,03,31,19.30
2018,08,21,03,32,19.30
2018,08,21,03,33,19.30
2018,08,21,03,34,19.30
2018,08,21,03,35,19.30
2018,08,21,03,36,19.30
2018,08,21,03,37,19.30
2018,08,21,03,38,19.30
2018,08,21,03,39,19.30
2018,08,21,03,40,19.30
2018,08,21,03,41,19.20
2018,08,21,03,42,19.20
2018,08,21,03,43,19.20
2018,08,21,03,44,19.20
2018,08,21,03,45,19.20
2018,08,21,03,46,19.20
2018,08,21,03,47,19.20
2018,08,21,03,48,19.20
2018,08,21,03,49,19.10
2018,08,21,03,50,19.10
2018,08,21,03,51,19.00
2018,08,21,03,52,19.00
2018,08,21,03,53,19.00
2018,08,21,03,54,18.90
2018,08,21,03,55,18.90
2018,08,21,03,56,18.90
2018,08,21,03,57,18.80
2018,08,21,03,58,18.80
2018,08,21,03,59,18.80
2018,08,21,04,00,18.80
2018,08,21,04,01,18.80
2018,08,21,04,02,18.70
2018,08,21,04,03,18.70
2018,08,21,04,04,18.70
2018,08,21,04,05,18.60
2018,08,21,04,06,18.60
2018,08,21,04,07,18.60
2018,08,21,04,08,18.60
2018,08,21,04,09,18.60
2018,08,21,04,10,18.50
2018,08,21,04,11,18.50
2018,08,21,04,12,18.50
2018,08,21,04,13,18.50
2018,08,21,04,14,18.40
2018,08,21,04,15,18.40
2018,08,21,04,16,18.40
2018,08,21,04,17,18.40
2018,08,21,04,18,18.40
2018,08,21,04,19,18.40
2018,08,21,04,20,18.40
2018,08,21,04,21,18.40
2018,08,21,04,22,18.30
2018,08,21,04,23,18.30
2018,08,21,04,24,18.30
2018,08,21,04,25,18.30
2018,08,21,04,26,18.30
2018,08,21,04,27,18.30
2018,08,21,04,28,18.30
2018,08,21,04,29,18.30
2018,08,21,04,30,18.20
2018,08,21,04,31,18.20
2018,08,21,04,32,18.20
2018,08,21,04,33,18.20
2018,08,21,04,34,18.20
2018,08,21,04,35,18.20
2018,08,21,04,36,18.20
2018,08,21,04,37,18.20
2018,08,21,04,38,18.10
2018,08,21,04,39,18.10
2018,08,21,04,40,18.10
2018,08,21,04,41,18.10
2018,08,21,04,42,18.10
2018,08,21,04,43,18.10
2018,08,21,04,44,18.10
2018,08,21,04,45,18.10
2018,08,21,04,46,18.10
2018,08,21,04,47,18.10
2018,08,21,04,48,18.10
2018,08,21,04,49,18.10
2018,08,21,04,50,18.10
2018,08,21,04,51,18.10
2018,08,21,04,52,18.10
2018,08,21,04,53,18.10
2018,08,21,04,54,18.10
2018,08,21,04,55,18.20
2018,08,21,04,56,18.20
2018,08,21,04,57,18.20
2018,08,21,04,58,18.20
2018,08,21,04,59,18.20
2018,08,21,05,00,18.20
2018,08,21,05,01,18.20
2018,08,21,05,02,18.30
2018,08,21,05,03,18.30
2018,08,21,05,04,18.30
2018,08,21,05,05,18.30
2018,08,21,05,06,18.30
2018,08,21,05,07,18.30
2018,08,21,05,08,18.30
2018,08,21,05,09,18.30
2018,08,21,05,10,18.40
2018,08,21,05,11,18.40
2018,08,21,05,12,18.40
2018,08,21,05,13,18.40
2018,08,21,05,14,18.40
2018,08,21,05,15,18.40
2018,08,21,05,16,18.40
2018,08,21,05,17,18.40
2018,08,21,05,18,18.50
2018,08,21,05,19,18.50
2018,08,21,05,20,18.50
2018,08,21,05,21,18.50
2018,08,21,05,22,18.50
2018,08,21,05,23,18.60
2018,08,21,05,24,18.60
2018,08,21,05,25,18.60
2018,08,21,05,26,18.60
2018,08,21,05,27,18.60
2018,08,21,05,28,18.60
2018,08,21,05,29,18.60
2018,08,21,05,30,18.50
2018,08,21,05,31,18.50
2018,08,21,05,32,18.40
2018,08,21,05,33,18.40
2018,08,21,05,34,18.30
2018,08,21,05,35,18.30
2018,08,21,05,36,18.20
2018,08,21,05,37,18.20
2018,08,21,05,38,18.10
2018,08,21,05,39,18.10
2018,08,21,05,40,18.00
2018,08,21,05,41,18.00
2018,08,21,05,42,18.00
2018,08,21,05,43,17.90
2018,08,21,05,44,17.90
2018,08,21,05,45,17.90
2018,08,21,05,46,17.90
2018,08,21,05,47,17.80
2018,08,21,05,48,17.80
2018,08,21,05,49,17.80
2018,08,21,05,50,17.80
2018,08,21,05,51,17.80
2018,08,21,05,52,17.80
2018,08,21,05,53,17.80
2018,08,21,05,54,17.80
2018,08,21,05,55,17.80
2018,08,21,05,56,17.80
2018,08,21,05,57,17.80
2018,08,21,05,58,17.80
2018,08,21,05,59,17.80
2018,08,21,06,00,17.80
2018,08,21,06,01,17.80
2018,08,21,06,02,17.80
2018,08,21,06,03,17.90
2018,08,21,06,04,17.80
2018,08,21,06,05,17.90
2018,08,21,06,06,17.90
2018,08,21,06,07,17.90
2018,08,21,06,08,17.90
2018,08,21,06,09,17.90
2018,08,21,06,10,17.90
2018,08,21,06,11,17.90
2018,08,21,06,12,17.90
2018,08,21,06,13,17.90
2018,08,21,06,14,17.90
2018,08,21,06,15,17.90
2018,08,21,06,16,17.90
2018,08,21,06,17,17.90
2018,08,21,06,18,17.90
2018,08,21,06,19,17.90
2018,08,21,06,20,17.90
2018,08,21,06,21,17.90
2018,08,21,06,22,17.90
2018,08,21,06,23,17.90
2018,08,21,06,24,17.90
2018,08,21,06,25,17.90
2018,08,21,06,26,17.80
2018,08,21,06,27,17.80
2018,08,21,06,28,17.70
2018,08,21,06,29,17.70
2018,08,21,06,30,17.70
2018,08,21,06,31,17.60
2018,08,21,06,32,17.60
2018,08,21,06,33,17.50
2018,08,21,06,34,17.30
2018,08,21,06,35,17.20
2018,08,21,06,36,17.20
2018,08,21,06,37,17.10
2018,08,21,06,38,17.10
2018,08,21,06,39,17.10
2018,08,21,06,40,17.10
2018,08,21,06,41,17.00
2018,08,21,06,42,17.00
2018,08,21,06,43,17.00
2018,08,21,06,44,17.00
2018,08,21,06,45,17.10
2018,08,21,06,46,17.00
2018,08,21,06,47,17.10
2018,08,21,06,48,17.10
2018,08,21,06,49,17.10
2018,08,21,06,50,17.10
2018,08,21,06,51,17.10
2018,08,21,06,52,17.10
2018,08,21,06,53,17.10
2018,08,21,06,54,17.10
2018,08,21,06,55,17.10
2018,08,21,06,56,17.20
2018,08,21,06,57,17.20
2018,08,21,06,58,17.20
2018,08,21,06,59,17.30
2018,08,21,07,00,17.30
2018,08,21,07,01,17.30
2018,08,21,07,02,17.40
2018,08,21,07,03,17.40
2018,08,21,07,04,17.50
2018,08,21,07,05,17.50
2018,08,21,07,06,17.60
2018,08,21,07,07,17.60
2018,08,21,07,08,17.60
2018,08,21,07,09,17.70
2018,08,21,07,10,17.70
2018,08,21,07,11,17.70
2018,08,21,07,12,17.70
2018,08,21,07,13,17.70
2018,08,21,07,14,17.80
2018,08,21,07,15,17.80
2018,08,21,07,16,17.80
2018,08,21,07,17,17.80
2018,08,21,07,18,17.90
2018,08,21,07,19,17.90
2018,08,21,07,20,17.90
2018,08,21,07,21,17.90
2018,08,21,07,22,17.90
2018,08,21,07,23,17.90
2018,08,21,07,24,17.90
2018,08,21,07,25,17.90
2018,08,21,07,26,18.00
2018,08,21,07,27,18.00
2018,08,21,07,28,18.00
2018,08,21,07,29,18.00
2018,08,21,07,30,18.10
2018,08,21,07,31,18.10
2018,08,21,07,32,18.10
2018,08,21,07,33,18.10
2018,08,21,07,34,18.10
2018,08,21,07,35,18.10
2018,08,21,07,36,18.20
2018,08,21,07,37,18.20
2018,08,21,07,38,18.20
2018,08,21,07,39,18.20
2018,08,21,07,40,18.30
2018,08,21,07,41,18.30
2018,08,21,07,42,18.30
2018,08,21,07,43,18.30
2018,08,21,07,44,18.30
2018,08,21,07,45,18.30
2018,08,21,07,46,18.30
2018,08,21,07,47,18.30
2018,08,21,07,48,18.30
2018,08,21,07,49,18.30
2018,08,21,07,50,18.30
2018,08,21,07,51,18.30
2018,08,21,07,52,18.30
2018,08,21,07,53,18.20
2018,08,21,07,54,18.20
2018,08,21,07,55,18.10
2018,08,21,07,56,18.00
2018,08,21,07,57,18.00
2018,08,21,07,58,17.90
2018,08,21,07,59,17.80
2018,08,21,08,00,17.80
2018,08,21,08,01,17.80
2018,08,21,08,02,17.70
2018,08,21,08,03,17.70
2018,08,21,08,04,17.60
2018,08,21,08,05,17.50
2018,08,21,08,06,17.50
2018,08,21,08,07,17.40
2018,08,21,08,08,17.40
2018,08,21,08,09,17.30
2018,08,21,08,10,17.30
2018,08,21,08,11,17.20
2018,08,21,08,12,17.20
2018,08,21,08,13,17.20
2018,08,21,08,14,17.20
2018,08,21,08,15,17.10
2018,08,21,08,16,17.10
2018,08,21,08,17,17.10
2018,08,21,08,18,17.10
2018,08,21,08,19,17.10
2018,08,21,08,20,17.10
2018,08,21,08,21,17.10
2018,08,21,08,22,17.10
2018,08,21,08,23,17.00
2018,08,21,08,24,17.00
2018,08,21,08,25,17.00
2018,08,21,08,26,17.00
2018,08,21,08,27,17.00
2018,08,21,08,28,17.00
2018,08,21,08,29,17.00
2018,08,21,08,30,17.00
2018,08,21,08,31,17.00
2018,08,21,08,32,17.00
2018,08,21,08,33,17.00
2018,08,21,08,34,17.00
2018,08,21,08,35,17.10
2018,08,21,08,36,17.10
2018,08,21,08,37,17.10
2018,08,21,08,38,17.10
2018,08,21,08,39,17.10
2018,08,21,08,40,17.10
2018,08,21,08,41,17.10
2018,08,21,08,42,17.10
2018,08,21,08,43,17.10
2018,08,21,08,44,17.10
2018,08,21,08,45,17.10
2018,08,21,08,46,17.10
2018,08,21,08,47,17.10
2018,08,21,08,48,17.10
2018,08,21,08,49,17.10
2018,08,21,08,50,17.10
2018,08,21,08,51,17.10
2018,08,21,08,52,17.10
2018,08,21,08,53,17.10
2018,08,21,08,54,17.10
2018,08,21,08,55,17.10
2018,08,21,08,56,17.10
2018,08,21,08,57,17.10
2018,08,21,08,58,17.10
2018,08,21,08,59,17.10
2018,08,21,09,00,17.10
2018,08,21,09,01,17.10
2018,08,21,09,02,17.10
2018,08,21,09,03,17.10
2018,08,21,09,04,17.20
2018,08,21,09,05,17.20
2018,08,21,09,06,17.20
2018,08,21,09,07,17.20
2018,08,21,09,08,17.20
2018,08,21,09,09,17.20
2018,08,21,09,10,17.20
2018,08,21,09,11,17.20
2018,08,21,09,12,17.20
2018,08,21,09,13,17.20
2018,08,21,09,14,17.20
2018,08,21,09,15,17.20
2018,08,21,09,16,17.20
2018,08,21,09,17,17.20
2018,08,21,09,18,17.20
2018,08,21,09,19,17.20
2018,08,21,09,20,17.30
2018,08,21,09,21,17.30
2018,08,21,09,22,17.30
2018,08,21,09,23,17.30
2018,08,21,09,24,17.30
2018,08,21,09,25,17.30
2018,08,21,09,26,17.30
2018,08,21,09,27,17.30
2018,08,21,09,28,17.40
2018,08,21,09,29,17.40
2018,08,21,09,30,17.40
2018,08,21,09,31,17.40
2018,08,21,09,32,17.50
2018,08,21,09,33,17.50
2018,08,21,09,34,17.50
2018,08,21,09,35,17.60
2018,08,21,09,36,17.50
2018,08,21,09,37,17.60
2018,08,21,09,38,17.60
2018,08,21,09,39,17.60
2018,08,21,09,40,17.70
2018,08,21,09,41,17.70
2018,08,21,09,42,17.70
2018,08,21,09,43,17.70
2018,08,21,09,44,17.80
2018,08,21,09,45,17.80
2018,08,21,09,46,17.80
2018,08,21,09,47,17.80
2018,08,21,09,48,17.80
2018,08,21,09,49,17.80
2018,08,21,09,50,17.80
2018,08,21,09,51,17.80
2018,08,21,09,52,17.90
2018,08,21,09,53,17.90
2018,08,21,09,54,17.90
2018,08,21,09,55,17.90
2018,08,21,09,56,17.90
2018,08,21,09,57,17.90
2018,08,21,09,58,17.90
2018,08,21,09,59,17.90
2018,08,21,10,00,17.90
2018,08,21,10,01,17.90
2018,08,21,10,02,17.90
2018,08,21,10,03,18.00
2018,08,21,10,04,18.00
2018,08,21,10,05,18.10
2018,08,21,10,06,18.10
2018,08,21,10,07,18.10
2018,08,21,10,08,18.10
2018,08,21,10,09,18.20
2018,08,21,10,10,18.20
2018,08,21,10,11,18.20
2018,08,21,10,12,18.20
2018,08,21,10,13,18.20
2018,08,21,10,14,18.30
2018,08,21,10,15,18.30
2018,08,21,10,16,18.40
2018,08,21,10,17,18.40
2018,08,21,10,18,18.40
2018,08,21,10,19,18.50
2018,08,21,10,20,18.50
2018,08,21,10,21,18.50
2018,08,21,10,22,18.50
2018,08,21,10,23,18.50
2018,08,21,10,24,18.50
2018,08,21,10,25,18.60
2018,08,21,10,26,18.60
2018,08,21,10,27,18.60
2018,08,21,10,28,18.60
2018,08,21,10,29,18.60
2018,08,21,10,30,18.60
2018,08,21,10,31,18.60
2018,08,21,10,32,18.70
2018,08,21,10,33,18.80
2018,08,21,10,34,18.80
2018,08,21,10,35,18.90
2018,08,21,10,36,19.00
2018,08,21,10,37,19.00
2018,08,21,10,38,19.10
2018,08,21,10,39,19.10
2018,08,21,10,40,19.20
2018,08,21,10,41,19.30
2018,08,21,10,42,19.30
2018,08,21,10,43,19.40
2018,08,21,10,44,19.40
2018,08,21,10,45,19.50
2018,08,21,10,46,19.60
2018,08,21,10,47,19.60
2018,08,21,10,48,19.70
2018,08,21,10,49,19.70
2018,08,21,10,50,19.80
2018,08,21,10,51,19.80
2018,08,21,10,52,19.90
2018,08,21,10,53,19.90
2018,08,21,10,54,20.00
2018,08,21,10,55,20.20
2018,08,21,10,56,20.30
2018,08,21,10,57,20.40
2018,08,21,10,58,20.60
2018,08,21,10,59,20.70
2018,08,21,11,00,20.90
2018,08,21,11,01,21.00
2018,08,21,11,02,21.10
2018,08,21,11,03,21.20
2018,08,21,11,04,21.30
2018,08,21,11,05,21.40
2018,08,21,11,06,21.50
2018,08,21,11,07,21.60
2018,08,21,11,08,21.70
2018,08,21,11,09,21.80
2018,08,21,11,10,21.90
2018,08,21,11,11,21.90
2018,08,21,11,12,22.00
2018,08,21,11,13,22.10
2018,08,21,11,14,22.10
2018,08,21,11,15,22.10
2018,08,21,11,16,22.10
2018,08,21,11,17,22.10
2018,08,21,11,18,22.10
2018,08,21,11,19,22.00
2018,08,21,11,20,22.10
2018,08,21,11,21,22.10
2018,08,21,11,22,22.10
2018,08,21,11,23,22.00
2018,08,21,11,24,22.00
2018,08,21,11,25,22.00
2018,08,21,11,26,21.90
2018,08,21,11,27,21.90
2018,08,21,11,28,21.80
2018,08,21,11,29,21.80
2018,08,21,11,30,21.70
2018,08,21,11,31,21.70
2018,08,21,11,32,21.60
2018,08,21,11,33,21.60
2018,08,21,11,34,21.60
2018,08,21,11,35,21.50
2018,08,21,11,36,21.40
2018,08,21,11,37,21.40
2018,08,21,11,38,21.40
2018,08,21,11,39,21.40
2018,08,21,11,40,21.40
2018,08,21,11,41,21.40
2018,08,21,11,42,21.40
2018,08,21,11,43,21.40
2018,08,21,11,44,21.40
2018,08,21,11,45,21.40
2018,08,21,11,46,21.40
2018,08,21,11,47,21.40
2018,08,21,11,48,21.40
2018,08,21,11,49,21.40
2018,08,21,11,50,21.40
2018,08,21,11,51,21.40
2018,08,21,11,52,21.40
2018,08,21,11,53,21.40
2018,08,21,11,54,21.40
2018,08,21,11,55,21.40
2018,08,21,11,56,21.40
2018,08,21,11,57,21.40
2018,08,21,11,58,21.40
2018,08,21,11,59,21.50
2018,08,21,12,00,21.50
2018,08,21,12,01,21.60
2018,08,21,12,02,21.70
2018,08,21,12,03,21.80
2018,08,21,12,04,21.80
2018,08,21,12,05,21.90
2018,08,21,12,06,21.90
2018,08,21,12,07,21.90
2018,08,21,12,08,21.90
2018,08,21,12,09,21.90
2018,08,21,12,10,22.00
2018,08,21,12,11,21.90
2018,08,21,12,12,22.00
2018,08,21,12,13,22.00
2018,08,21,12,14,22.10
2018,08,21,12,15,22.10
2018,08,21,12,16,22.10
2018,08,21,12,17,22.20
2018,08,21,12,18,22.20
2018,08,21,12,19,22.20
2018,08,21,12,20,22.30
2018,08,21,12,21,22.30
2018,08,21,12,22,22.40
2018,08,21,12,23,22.40
2018,08,21,12,24,22.40
2018,08,21,12,25,22.50
2018,08,21,12,26,22.60
2018,08,21,12,27,22.60
2018,08,21,12,28,22.60
2018,08,21,12,29,22.70
2018,08,21,12,30,22.70
2018,08,21,12,31,22.70
2018,08,21,12,32,22.70
2018,08,21,12,33,22.70
2018,08,21,12,34,22.70
2018,08,21,12,35,22.70
2018,08,21,12,36,22.80
2018,08,21,12,37,22.70
2018,08,21,12,38,22.70
2018,08,21,12,39,22.60
2018,08,21,12,40,22.50
2018,08,21,12,41,22.40
2018,08,21,12,42,22.30
2018,08,21,12,43,22.30
2018,08,21,12,44,22.20
2018,08,21,12,45,22.10
2018,08,21,12,46,22.10
2018,08,21,12,47,22.10
2018,08,21,12,48,22.00
2018,08,21,12,49,22.00
2018,08,21,12,50,22.00
2018,08,21,12,51,22.00
2018,08,21,12,52,22.00
2018,08,21,12,53,22.10
2018,08,21,12,54,22.10
2018,08,21,12,55,22.10
2018,08,21,12,56,22.20
2018,08,21,12,57,22.30
2018,08,21,12,58,22.30
2018,08,21,12,59,22.40
2018,08,21,13,00,22.40
2018,08,21,13,01,22.50
2018,08,21,13,02,22.60
2018,08,21,13,03,22.60
2018,08,21,13,04,22.70
2018,08,21,13,05,22.70
2018,08,21,13,06,22.80
2018,08,21,13,07,22.80
2018,08,21,13,08,22.80
2018,08,21,13,09,22.90
2018,08,21,13,10,22.90
2018,08,21,13,11,22.90
2018,08,21,13,12,23.00
2018,08,21,13,13,23.10
2018,08,21,13,14,23.10
2018,08,21,13,15,23.10
2018,08,21,13,16,23.20
2018,08,21,13,17,23.20
2018,08,21,13,18,23.20
2018,08,21,13,19,23.20
2018,08,21,13,20,23.30
2018,08,21,13,21,23.30
2018,08,21,13,22,23.40
2018,08,21,13,23,23.40
2018,08,21,13,24,23.40
2018,08,21,13,25,23.50
2018,08,21,13,26,23.50
2018,08,21,13,27,23.50
2018,08,21,13,28,23.60
2018,08,21,13,29,23.60
2018,08,21,13,30,23.60
2018,08,21,13,31,23.60
2018,08,21,13,32,23.60
2018,08,21,13,33,23.70
2018,08,21,13,34,23.70
2018,08,21,13,35,23.70
2018,08,21,13,36,23.70
2018,08,21,13,37,23.70
2018,08,21,13,38,23.80
2018,08,21,13,39,23.80
2018,08,21,13,40,23.80
2018,08,21,13,41,23.80
2018,08,21,13,42,23.80
2018,08,21,13,43,23.80
2018,08,21,13,44,23.80
2018,08,21,13,45,23.90
2018,08,21,13,46,23.90
2018,08,21,13,47,23.90
2018,08,21,13,48,23.90
2018,08,21,13,49,23.90
2018,08,21,13,50,23.90
2018,08,21,13,51,23.90
2018,08,21,13,52,23.90
2018,08,21,13,53,23.90
2018,08,21,13,54,23.90
2018,08,21,13,55,23.90
2018,08,21,13,56,23.90
2018,08,21,13,57,24.00
2018,08,21,13,58,24.10
2018,08,21,13,59,24.10
2018,08,21,14,00,24.20
2018,08,21,14,01,24.20
2018,08,21,14,02,24.20
2018,08,21,14,03,24.30
2018,08,21,14,04,24.30
2018,08,21,14,05,24.30
2018,08,21,14,06,24.30
2018,08,21,14,07,24.30
2018,08,21,14,08,24.30
2018,08,21,14,09,24.30
2018,08,21,14,10,24.30
2018,08,21,14,11,24.30
2018,08,21,14,12,24.40
2018,08,21,14,13,24.40
2018,08,21,14,14,24.40
2018,08,21,14,15,24.40
2018,08,21,14,16,24.40
2018,08,21,14,17,24.50
2018,08,21,14,18,24.50
2018,08,21,14,19,24.60
2018,08,21,14,20,24.60
2018,08,21,14,21,24.60
2018,08,21,14,22,24.60
2018,08,21,14,23,24.70
2018,08,21,14,24,24.70
2018,08,21,14,25,24.70
2018,08,21,14,26,24.70
2018,08,21,14,27,24.70
2018,08,21,14,28,24.80
2018,08,21,14,29,24.80
2018,08,21,14,30,24.80
2018,08,21,14,31,24.90
2018,08,21,14,32,24.90
2018,08,21,14,33,25.00
2018,08,21,14,34,25.00
2018,08,21,14,35,25.10
2018,08,21,14,36,25.10
2018,08,21,14,37,25.20
2018,08,21,14,38,25.20
2018,08,21,14,39,25.30
2018,08,21,14,40,25.30
2018,08,21,14,41,25.30
2018,08,21,14,42,25.30
2018,08,21,14,43,25.30
2018,08,21,14,44,25.40
2018,08,21,14,45,25.40
2018,08,21,14,46,25.40
2018,08,21,14,47,25.50
2018,08,21,14,48,25.50
2018,08,21,14,49,25.50
2018,08,21,14,50,25.50
2018,08,21,14,51,25.60
2018,08,21,14,52,25.50
2018,08,21,14,53,25.50
2018,08,21,14,54,25.50
2018,08,21,14,55,25.50
2018,08,21,14,56,25.50
2018,08,21,14,57,25.50
2018,08,21,14,58,25.50
2018,08,21,14,59,25.50
2018,08,21,15,00,25.50
2018,08,21,15,01,25.50
2018,08,21,15,02,25.50
2018,08,21,15,03,25.50
2018,08,21,15,04,25.60
2018,08,21,15,05,25.60
2018,08,21,15,06,25.60
2018,08,21,15,07,25.60
2018,08,21,15,08,25.60
2018,08,21,15,09,25.60
2018,08,21,15,10,25.60
2018,08,21,15,11,25.70
2018,08,21,15,12,25.80
2018,08,21,15,13,25.80
2018,08,21,15,14,25.80
2018,08,21,15,15,25.80
2018,08,21,15,16,25.80
2018,08,21,15,17,25.80
2018,08,21,15,18,25.80
2018,08,21,15,19,25.80
2018,08,21,15,20,25.80
2018,08,21,15,21,25.80
2018,08,21,15,22,25.80
2018,08,21,15,23,25.80
2018,08,21,15,24,25.80
2018,08,21,15,25,25.80
2018,08,21,15,26,25.80
2018,08,21,15,27,25.80
2018,08,21,15,28,25.80
2018,08,21,15,29,25.70
2018,08,21,15,30,25.70
2018,08,21,15,31,25.60
2018,08,21,15,32,25.60
2018,08,21,15,33,25.60
2018,08,21,15,34,25.70
2018,08,21,15,35,25.70
2018,08,21,15,36,25.70
2018,08,21,15,37,25.70
2018,08,21,15,38,25.70
2018,08,21,15,39,25.70
2018,08,21,15,40,25.80
2018,08,21,15,41,25.80
2018,08,21,15,42,25.80
2018,08,21,15,43,25.80
2018,08,21,15,44,25.80
2018,08,21,15,45,25.80
2018,08,21,15,46,25.80
2018,08,21,15,47,25.70
2018,08,21,15,48,25.70
2018,08,21,15,49,25.70
2018,08,21,15,50,25.80
2018,08,21,15,51,25.70
2018,08,21,15,52,25.70
2018,08,21,15,53,25.70
2018,08,21,15,54,25.70
2018,08,21,15,55,25.70
2018,08,21,15,56,25.80
2018,08,21,15,57,25.70
2018,08,21,15,58,25.80
2018,08,21,15,59,25.80
2018,08,21,16,00,25.80
2018,08,21,16,01,25.80
2018,08,21,16,02,25.80
2018,08,21,16,03,25.80
2018,08,21,16,04,25.80
2018,08,21,16,05,25.90
2018,08,21,16,06,25.90
2018,08,21,16,07,25.90
2018,08,21,16,08,25.90
2018,08,21,16,09,25.90
2018,08,21,16,10,25.90
2018,08,21,16,11,25.90
2018,08,21,16,12,25.90
2018,08,21,16,13,25.90
2018,08,21,16,14,25.90
2018,08,21,16,15,25.90
2018,08,21,16,16,25.90
2018,08,21,16,17,25.90
2018,08,21,16,18,25.90
2018,08,21,16,19,25.90
2018,08,21,16,20,25.90
2018,08,21,16,21,26.00
2018,08,21,16,22,26.00
2018,08,21,16,23,26.10
2018,08,21,16,24,26.10
2018,08,21,16,25,26.10
2018,08,21,16,26,26.10
2018,08,21,16,27,26.10
2018,08,21,16,28,26.00
2018,08,21,16,29,26.00
2018,08,21,16,30,25.90
2018,08,21,16,31,25.90
2018,08,21,16,32,25.80
2018,08,21,16,33,25.80
2018,08,21,16,34,25.80
2018,08,21,16,35,25.70
2018,08,21,16,36,25.70
2018,08,21,16,37,25.60
2018,08,21,16,38,25.60
2018,08,21,16,39,25.50
2018,08,21,16,40,25.40
2018,08,21,16,41,25.40
2018,08,21,16,42,25.40
2018,08,21,16,43,25.30
2018,08,21,16,44,25.30
2018,08,21,16,45,25.30
2018,08,21,16,46,25.30
2018,08,21,16,47,25.30
2018,08,21,16,48,25.30
2018,08,21,16,49,25.30
2018,08,21,16,50,25.30
2018,08,21,16,51,25.30
2018,08,21,16,52,25.30
2018,08,21,16,53,25.30
2018,08,21,16,54,25.20
2018,08,21,16,55,25.20
2018,08,21,16,56,25.20
2018,08,21,16,57,25.10
2018,08,21,16,58,25.10
2018,08,21,16,59,25.10
2018,08,21,17,00,25.00
2018,08,21,17,01,25.00
2018,08,21,17,02,25.00
2018,08,21,17,03,25.00
2018,08,21,17,04,25.00
2018,08,21,17,05,25.00
2018,08,21,17,06,25.00
2018,08,21,17,07,25.00
2018,08,21,17,08,25.00
2018,08,21,17,09,25.00
2018,08,21,17,10,25.00
2018,08,21,17,11,24.90
2018,08,21,17,12,24.90
2018,08,21,17,13,24.80
2018,08,21,17,14,24.80
2018,08,21,17,15,24.70
2018,08,21,17,16,24.70
2018,08,21,17,17,24.70
2018,08,21,17,18,24.60
2018,08,21,17,19,24.50